Вернуться в каталог

LYNK TOWER 6

АктивенСвязьSSO
NORAD 59123·PAYLOAD·🇺🇸 United States

Запущен Mar 4, 2024 с Vandenberg Space Force Base

Loading…

Ближайшие Пролёты (ближайшие 24 часа)

TLE

СвежийSource: Space-Track

Эпоха: Sep 14, 2026, 04:39 UTC

1 59123U 24043AB  26257.19391871  .00004312  00000-0  14228-3 0  9994
2 59123  97.5729  36.0099 0008501 292.2842  67.7497 15.31956142140654

Отслеживайте LYNK TOWER 6 в реальном времени с AllMySat

Download on the App Store